MST,Max TemperatureF,Mean TemperatureF,Min TemperatureF,Max Dew PointF,MeanDew PointF,Min DewpointF,Max Humidity, Mean Humidity, Min Humidity, Max Sea Level PressureIn, Mean Sea Level PressureIn, Min Sea Level PressureIn, Max VisibilityMiles, Mean VisibilityMiles, Min VisibilityMiles, Max Wind SpeedMPH, Mean Wind SpeedMPH, Max Gust SpeedMPH,PrecipitationIn, CloudCover, Events, WindDirDegrees
2012-12-1,85,72,59,65,58,50,94,63,30,30.09,30.01,29.96,19,12,2,15,5,,0.00,1,,4
2012-12-2,82,70,58,66,58,52,94,67,47,30.17,30.05,29.98,19,12,2,12,4,,0.00,2,,347
2012-12-3,86,72,57,60,54,48,88,56,30,30.17,30.05,29.98,19,11,2,15,4,,0.00,0,,306
2012-12-4,84,71,58,64,58,45,87,63,43,30.15,30.06,29.99,19,11,2,17,5,,0.00,1,,343
2012-12-5,86,72,59,63,57,50,94,60,30,30.10,30.00,29.93,19,10,2,12,4,,0.00,2,,357
2012-12-6,91,75,59,64,52,43,82,50,22,30.01,29.92,29.83,19,11,2,13,5,,0.00,4,,231
2012-12-7,79,72,62,64,57,52,88,65,41,30.03,29.91,29.83,19,11,10,10,7,,0.00,7,,191
2012-12-8,79,70,60,62,57,54,88,66,44,30.06,29.93,29.86,19,11,2,8,4,,0.00,7,,213
2012-12-9,82,70,59,65,57,54,88,62,42,30.14,30.00,29.93,19,12,2,12,5,,0.00,3,,265
2012-12-10,80,69,58,66,59,52,88,68,48,30.09,29.99,29.92,19,10,2,17,5,,0.00,2,,3
2012-12-11,78,68,57,62,57,50,94,67,42,30.12,29.99,29.92,19,10,2,15,5,,0.00,1,,357
2012-12-12,81,68,56,64,57,46,94,66,39,30.08,29.99,29.93,19,10,2,12,4,,0.00,0,,325
2012-12-13,70,65,60,68,63,55,95,86,68,30.09,30.00,29.93,16,7,2,9,3,,0.12,8,Rain,178
2012-12-14,73,68,62,66,61,57,94,79,64,30.20,30.07,30.00,16,9,2,9,4,,0.00,7,,41
2012-12-15,70,65,60,61,55,50,88,71,50,30.19,30.08,30.01,16,10,2,8,3,,0.00,7,,210
2012-12-16,78,67,56,57,55,50,88,66,43,30.19,30.07,30.01,19,11,2,16,5,,0.00,5,,11
2012-12-17,76,68,60,58,55,51,73,60,40,30.11,30.01,29.93,19,10,2,22,10,,0.00,1,,13
2012-12-18,80,66,51,59,53,45,93,65,30,30.06,29.94,29.86,19,11,2,14,5,,0.00,0,,268
2012-12-19,76,68,60,61,57,52,88,67,46,30.07,30.00,29.94,19,10,2,18,8,,0.00,2,,355
2012-12-20,74,69,64,63,56,52,79,62,41,30.13,30.04,29.98,19,9,2,15,9,,0.00,4,,21
2012-12-21,77,68,60,66,58,50,94,72,57,30.14,30.06,30.00,19,11,2,14,6,,0.00,4,,8
2012-12-22,80,70,59,69,60,52,94,78,53,30.15,30.07,30.01,20,11,2,14,4,,0.00,6,,2
2012-12-23,79,70,60,69,62,55,94,76,61,30.10,30.03,29.96,19,11,2,13,6,,0.00,6,,10
2012-12-24,78,68,55,68,55,45,82,60,34,30.07,29.99,29.92,19,10,2,14,7,,0.00,5,,16
2012-12-25,79,66,52,62,51,39,81,56,29,30.09,29.98,29.89,19,10,2,17,8,,0.00,2,,21
2012-12-26,77,68,59,64,55,45,94,68,50,30.01,29.95,29.88,19,10,2,14,6,,0.00,3,,282
2012-12-27,77,66,55,61,50,37,88,58,25,30.04,29.96,29.90,19,10,2,9,5,,0.00,5,,172
2012-12-28,74,64,54,56,49,43,91,56,38,30.09,30.01,29.91,19,11,2,18,7,,0.00,4,,13
2012-12-29,73,66,60,59,53,50,73,59,52,30.09,30.01,29.93,19,11,2,15,8,,0.00,8,,12
2012-12-30,68,64,59,60,56,48,94,81,56,30.18,30.06,30.00,19,10,2,7,4,,0.24,8,Rain,174
2012-12-31,73,60,48,56,49,45,98,66,46,30.23,30.13,30.06,19,12,2,12,5,,0.00,2,,9